Location: Góry Miechowskie
(50.3599°N, 20.1803°E)
Time: 21:35:57
(UTC+00:00)

Tiros 1 despin weight - Pass Details

Date: 14 September 2024
Orbit: 572 x 614 km, 48.2° (Epoch: 12 October)

Event Time Altitude Azimuth Distance (km) Brightness Sun altitude
Rises 08:44:39 0° 276° (W) 2,885 ? 37.4°
Reaches altitude 10° 08:48:17 10° 246° (WSW) 1,969 ? 37.7°
Maximum altitude 08:50:05 12° 223° (SW) 1,819 ? 37.9°
Drops below altitude 10° 08:51:53 10° 199° (SSW) 1,956 ? 38.0°
Sets 08:55:29 0° 169° (S) 2,845 ? 38.4°
